User: anonymous   Login
Location: Unspecified
(0.0000°N, 0.0000°E)
Time: 07:55:37
(UTC+00:00)
Language:

FAISAT-2V - Orbit

View from above orbital plane
View from above orbital plane
View from above satellite
View from above satellite

Ground track
Ground track

The orbit data is extracted from the following two-line orbital elements,

1 24954U 97052B   19078.31771580 +.00000034 +00000-0 +18080-4 0  9992
2 24954 082.9257 167.5685 0039324 194.3961 196.8661 13.79984185081912
Epoch (UTC): 19 March 2019 07:37:30
Eccentricity: 0.0039324
inclination: 82.9257°
perigee height: 935 km
apogee height: 993 km
right ascension of ascending node: 167.5685°
argument of perigee: 194.3961°
revolutions per day: 13.79984185
mean anomaly at epoch: 196.8661°
orbit number at epoch: 8191

The dashed part of the orbit path shows where the satellite is in the earth's shadow,  

DLR